Regional Weather Roundup
Issued by NWS

Home | Current Version | Previous Version | Graphics & Text | Print | Product List | Glossary On
Versions: 1 2 3 4 5 6 7 8 9 10 11 12 13 14 15 16 17 18 19 20 21 22 23 24 25 26 27 28 29 30 31 32 33 34 35 36 37 38 39 40 41 42 43 44 45 46 47 48 49 50
000
ASUS43 KMKX 201300
RWRWI

WISCONSIN REGIONAL WEATHER ROUNDUP
NATIONAL WEATHER SERVICE MILWAUKEE/SULLIVAN WI
800 AM CDT SUN APR 20 2014

NOTE: "FAIR" INDICATES FEW OR NO CLOUDS BELOW 12,000 FEET WITH NO
SIGNIFICANT WEATHER AND/OR OBSTRUCTIONS TO VISIBILITY.

WIZ001-002-006>008-014>016-023>028-201400-
NORTHWEST WISCONSIN

CITY           SKY/WX    TMP DP  RH WIND       PRES   REMARKS
SUPERIOR ARPT  SUNNY     31  30  95 SW3       30.07R
ASHLAND        MOSUNNY   43  43 100 W5        30.05S
HAYWARD        PTSUNNY   38  36  92 NE3       30.06S FOG
SIREN          FOG       35  35 100 CALM      30.06S VSB<1/4
RICE LAKE      FOG       41  40  97 NW3       30.08R VSB<1/4
LADYSMITH      MOSUNNY   48  47  94 CALM      30.07R
EAU CLAIRE     NOT AVBL
MENOMONIE      CLOUDY    49  48  97 CALM      30.05R FOG
NEW RICHMOND   FOG       46  46 100 CALM      30.06S VSB<1/4
OSCEOLA        FOG       44  44 100 CALM      30.08F VSB<1/4
$$

WIZ003>005-009-010-017-018-201400-
NORTH CENTRAL WISCONSIN

CITY           SKY/WX    TMP DP  RH WIND       PRES   REMARKS
WOODRUFF       PTSUNNY   46  40  81 S3        30.07R
RHINELANDER    CLOUDY    49  40  71 SW8       30.08R
EAGLE RIVER    CLOUDY    40  40  99 CALM      30.07R FOG
LAND O LAKES   CLOUDY    45  39  80 CALM      30.08R
PHILLIPS       CLOUDY    44  44  98 CALM      30.06R
TOMAHAWK       CLOUDY    47  40  77 CALM      30.08R
MEDFORD        DRIZZLE   48  44  88 S7        30.07S
MERRILL        LGT RAIN  50  43  77 SW3G63    30.08R
$$

WIZ029-030-035-036-043>047-201400-
CENTRAL WISCONSIN

CITY           SKY/WX    TMP DP  RH WIND       PRES   REMARKS
WAUSAU         CLOUDY    51  43  74 S7        30.07R
MOSINEE        CLOUDY    48  45  87 S7        30.10S
MARSHFIELD     RAIN      51  44  77 S8        30.09R
STEVENS POINT  CLOUDY    51  38  61 S5        30.11S
WAUPACA        CLOUDY    54  41  62 SE5       30.13S
WAUTOMA        NOT AVBL
WISC RAPIDS    CLOUDY    57  38  48 S7        30.12R
CAMP DOUGLAS   NOT AVBL
$$

WIZ011>013-019>022-031-037>040-048>050-201400-
NORTHEAST WISCONSIN

CITY           SKY/WX    TMP DP  RH WIND       PRES   REMARKS
ANTIGO         CLOUDY    45  42  88 S7G16     30.09S
STURGEON BAY   CLOUDY    39  34  81 S13       30.18S WCI  32
GREEN BAY      LGT RAIN  49  43  80 S8        30.15F
MANITOWOC      NOT AVBL
APPLETON       CLOUDY    48  43  81 S6        30.15F
CLINTONVILLE   CLOUDY    50  41  71 S5        30.13S
OSHKOSH        CLOUDY    51  40  65 S12       30.14S
$$

WIZ032>034-041-042-053>061-201400-
SOUTHWEST WISCONSIN

CITY           SKY/WX    TMP DP  RH WIND       PRES   REMARKS
LA CROSSE      LGT RAIN  58  44  60 CALM      30.09S
SPARTA         CLOUDY    60  39  45 SW3       30.11R
VIROQUA        CLOUDY    54  45  70 S7        30.10S
BOSCOBEL       PTSUNNY   63  40  42 SW9       30.11S
PRAIRIE DU CHI CLOUDY    61  39  43 SE5       30.10R
PLATTEVILLE    FAIR      56  39  53 S6        30.14S
$$

WIZ056-057-062-063-064-067-068-201400-
SOUTH CENTRAL WISCONSIN

CITY           SKY/WX    TMP DP  RH WIND       PRES   REMARKS
BARABOO/DELLS  CLOUDY    55  38  52 S10       30.12S
LONE ROCK      NOT AVBL
WATERTOWN      RAIN      50  39  66 SW5       30.19R
MADISON        CLOUDY    53  41  63 S12       30.15S
MIDDLETON      PTSUNNY   55  38  53 S8        30.15S
MONROE         PTSUNNY   53  39  58 S13       30.15S
JANESVILLE     MOSUNNY   54  36  50 S12G17    30.17F
$$

WIZ051-052-058>065-066-070>072-201400-
SOUTHEAST WISCONSIN

CITY           SKY/WX    TMP DP  RH WIND       PRES   REMARKS
MILWAUKEE      CLOUDY    50  34  54 S6        30.22R
WAUKESHA       MOSUNNY   48  36  61 S7        30.20S
MILWAUKEE/TIMM MOSUNNY   52  34  50 S8        30.20S
RACINE         CLOUDY    47  36  65 S5        30.23R
BURLINGTON     CLOUDY    49  35  60 S5        30.20R
KENOSHA        CLOUDY    51  33  50 S8        30.21S
FOND DU LAC    CLOUDY    53  38  56 S13       30.15S
SHEBOYGAN      PTSUNNY   43  34  70 SE3       30.19S
WEST BEND      CLOUDY    50  34  53 S6        30.18S
JUNEAU         CLOUDY    51  34  53 S9        30.18S
$$

LSZ147-162-201400-
LAKE SUPERIOR

STATION/POSITION TIME  TEMP    WIND        PRES    WAVE
                       AIR SEA DIR/SP/G            HT/PER
                 (UTC) (F)     (DEG/KT/KT) (MB)    (FT/S)
DEVILS ISLAND    1200   31     230/ 11/ 11 1018.2R
PORT WING        1240   32     210/  2/  4 1017.9R
SAXON HARBOR     1200             CALM     1017.6R
$$

LMZ867-665-643>646-201400-
LAKE MICHIGAN

STATION/POSITION TIME  TEMP    WIND        PRES    WAVE
                       AIR SEA DIR/SP/G            HT/PER
                 (UTC) (F)     (DEG/KT/KT) (MB)    (FT/S)
NORTHPORT PIER   1200   40     160/ 12/ 20 1021.3S
SISTER BAY       1209   38     180/ 24/ 33   N/A
KEWAUNEE LAKESHO 1200   39     180/ 17/ 19 1022.7R
SHEBOYGAN LAKESH 1200   40     180/ 13/ 14 1023.3R
PORT WASHINGTON  1200   40     170/  6/  8 1023.4
MILWAUKEE LAKESH 1200   44     150/  7/  8   N/A
KENOSHA   LAKESH 1200   44     170/  8/ 10   N/A
$$

TC  - TEMPERATURE IN CELSIUS
VSB - VISIBILITY IN STATUTE MILES
WCI - WIND CHILL INDEX
HX  - HEAT INDEX




USA.gov is the U.S. government's official web portal to all federal, state and local government web resources and services.